Wind_Speed
126 132 133 138 143 141 154 149 145 142 142 139 138 137 123 125 128 120 120 117 115 114 114 114 110 109 110 107 107 109 109 106 108 103 100 103 101 104 108 108 107 107 108 100
119 120 121 127 135 133 141 146 149 151 152 150 143 137 126 129 127 122 125 121 120 122 120 121 119 119 113 113 113 112 109 111 111 107 103 105 105 105 108 110 107 105 112 103
106 109 115 118 122 125 135 135 141 147 152 153 152 146 137 133 129 128 126 125 126 124 120 121 122 119 116 115 113 110 111 110 109 109 112 111 107 107 107 109 109 114 111 112
94 99 107 109 114 117 124 125 127 132 131 137 141 143 143 146 144 135 131 127 127 123 122 122 124 123 120 118 117 117 117 114 113 110 113 115 115 109 110 113 114 120 113 116
85 89 93 95 103 110 118 119 117 118 123 128 130 129 140 144 146 143 132 135 135 130 129 129 130 127 126 124 122 125 122 119 116 117 115 118 116 112 114 116 115 118 118 113
76 79 85 92 96 105 107 111 115 106 113 114 120 122 121 126 133 137 137 135 143 137 137 135 130 127 128 128 128 131 126 123 121 119 119 118 115 111 114 117 118 120 115 115
69 67 72 77 82 91 96 102 107 105 97 108 109 108 112 116 118 118 118 121 124 133 136 134 136 139 134 133 128 131 125 123 122 120 118 120 115 113 115 116 115 116 115 112
59 65 70 73 77 82 87 93 97 91 90 98 102 105 102 104 107 109 110 112 113 112 112 115 118 118 124 129 130 127 129 124 121 120 121 118 113 113 112 116 112 112 110 107
56 63 66 67 73 79 80 79 82 80 85 87 93 99 101 101 98 100 100 102 103 99 102 106 108 108 110 110 111 109 110 111 112 112 113 112 106 108 108 109 104 103 99 95
54 57 59 64 68 71 69 64 74 77 79 79 79 79 85 91 94 95 97 98 99 98 95 96 97 99 97 99 95 96 97 98 99 100 99 94 95 95 98 95 91 88 87 85
47 50 54 58 61 56 65 59 64 67 74 75 74 70 75 81 86 87 88 90 88 84 86 84 82 83 85 85 82 83 85 86 87 88 90 87 89 88 91 88 86 82 81 78
43 45 47 49 52 61 55 55 61 61 66 73 68 66 67 71 74 76 80 77 78 78 80 77 75 76 74 73 75 81 76 78 80 80 80 79 81 84 83 83 78 74 72 66
36 38 40 41 45 52 55 56 56 61 67 61 59 52 55 57 68 71 70 67 69 68 66 70 68 67 65 67 68 72 71 70 71 73 70 74 75 73 72 72 70 66 61 56
31 33 35 37 41 46 47 46 47 50 53 52 48 47 50 58 64 61 63 62 59 61 62 62 62 61 63 62 64 66 67 67 66 65 67 69 65 64 63 60 58 55 51 46
28 31 33 35 38 39 38 39 41 44 43 42 42 45 52 59 56 53 54 54 57 57 57 56 55 57 58 59 61 58 63 62 63 63 61 59 58 56 52 50 49 45 41 38
25 28 30 32 33 34 35 36 36 36 38 39 45 48 55 50 47 46 48 50 52 51 51 49 50 52 52 52 52 54 55 55 52 53 54 50 49 45 44 41 39 38 35 33
24 25 27 29 31 32 32 34 39 39 42 43 46 51 46 42 41 42 44 44 45 45 43 44 46 47 45 44 46 50 51 46 47 46 43 41 41 37 36 35 32 30 31 32
23 25 27 27 27 30 32 36 38 40 43 47 46 42 38 36 37 38 40 41 41 41 40 40 40 36 35 36 46 50 43 41 38 36 38 37 33 34 30 28 29 31 31 31
22 23 25 27 31 34 34 35 36 37 38 31 31 27 26 26 30 33 36 36 35 34 35 35 35 34 32 45 52 39 35 31 34 35 32 31 29 26 28 30 27 27 29 32
21 21 20 21 22 23 23 23 21 22 21 23 23 27 29 31 33 34 33 32 32 33 35 35 32 36 42 42 36 29 29 34 31 30 30 27 26 27 26 25 26 30 33 37
23 22 22 22 22 22 22 23 25 27 28 30 30 30 30 31 31 30 27 27 31 34 33 32 34 36 33 29 26 31 30 28 29 28 26 25 24 24 23 26 30 35 38 39
22 25 25 25 25 24 24 25 26 26 25 26 26 26 27 27 25 25 25 27 30 33 30 28 29 26 28 31 31 28 28 27 27 25 24 22 20 21 26 30 34 36 36 35
22 22 24 24 24 23 24 25 27 28 27 29 29 28 27 27 27 27 29 30 28 27 28 27 27 28 28 28 27 26 25 24 23 21 20 20 22 25 28 31 33 34 34 33
16 20 23 25 25 24 23 22 24 25 25 26 27 28 29 29 29 27 28 27 27 27 24 25 26 26 26 25 24 24 23 22 19 20 21 22 25 27 29 32 33 34 34 33
16 18 21 23 24 24 22 22 21 21 23 25 25 23 23 25 26 26 25 24 22 23 25 25 24 21 20 22 23 22 20 19 22 22 22 24 26 28 29 31 34 35 35 35
18 18 20 23 24 23 24 24 25 25 26 26 26 25 23 24 24 23 22 24 26 26 24 22 22 24 23 21 19 18 20 22 21 23 24 26 27 27 30 33 35 37 37 37
22 20 20 20 22 24 24 22 22 21 23 24 25 27 28 27 27 27 26 27 24 23 23 22 20 19 17 17 17 20 21 22 23 24 26 27 28 29 33 36 37 37 38 38
Wind_Direction
247 246 245 244 243 242 240 242 240 241 240 243 244 246 249 251 252 251 254 255 256 258 261 263 263 263 264 267 265 268 269 273 275 275 276 275 275 279 280 280 281 284 286 287
245 246 244 245 243 245 244 244 240 241 240 241 240 245 246 248 249 252 253 253 254 257 258 261 262 262 264 264 265 266 270 272 274 274 275 273 277 277 279 281 280 284 285 289
244 244 243 243 243 244 243 243 243 243 241 242 242 242 242 242 246 250 250 251 253 255 257 258 260 261 262 263 265 265 268 270 270 272 273 273 275 278 279 280 282 283 285 286
242 243 242 242 242 241 243 244 244 242 244 245 246 243 242 244 245 245 247 250 252 253 256 258 259 260 261 262 263 265 266 267 267 269 271 273 275 278 278 280 283 282 285 287
240 239 240 243 244 240 240 244 244 243 244 243 244 244 243 244 245 245 248 249 248 253 256 255 256 257 258 260 262 263 265 266 268 269 269 271 274 277 278 279 281 283 285 288
236 235 236 235 237 237 239 243 245 243 243 244 244 246 246 247 247 246 248 251 248 248 252 255 259 262 262 263 263 264 266 268 269 270 271 272 276 277 278 280 282 284 285 286
235 235 235 235 235 236 238 240 243 245 240 242 246 248 247 246 247 248 249 250 249 249 251 252 254 256 256 258 260 263 265 268 269 271 273 274 276 278 278 279 281 282 286 286
231 230 229 229 231 234 235 238 240 242 240 240 243 245 246 246 247 250 251 250 251 252 253 253 254 255 256 256 257 260 263 266 269 270 272 273 276 276 276 277 281 284 286 287
227 228 229 228 229 232 234 237 241 241 240 241 241 243 246 247 247 248 251 253 254 255 256 255 253 255 255 256 257 260 263 264 266 268 270 271 271 273 276 277 280 283 285 288
226 227 228 228 229 233 234 234 236 239 241 241 241 241 244 245 246 247 249 249 250 251 251 252 253 253 253 255 258 259 260 262 264 264 266 269 271 272 275 278 280 282 287 290
226 226 224 226 229 235 233 230 231 234 238 239 238 238 238 241 243 244 245 248 249 249 249 250 252 255 256 256 258 257 259 261 263 266 268 270 271 274 275 278 282 285 286 286
221 223 222 222 220 226 232 229 229 229 235 237 236 235 234 235 240 242 245 245 246 246 247 249 249 250 253 255 255 256 258 260 262 265 268 270 271 273 277 280 283 284 284 285
218 219 219 218 217 223 226 227 228 227 232 237 239 236 236 233 235 237 240 242 241 243 245 247 247 249 249 250 253 253 256 257 259 262 265 266 269 276 278 280 282 282 280 278
212 213 213 213 215 220 224 226 226 228 231 232 233 231 228 230 234 233 235 237 239 238 239 242 242 240 243 245 248 250 252 254 257 261 265 269 275 275 276 278 277 275 275 276
205 207 207 208 209 213 215 216 218 222 225 226 222 220 223 227 231 230 231 231 232 233 235 237 237 238 239 242 246 248 250 252 258 262 267 268 270 272 273 271 271 272 272 270
201 199 201 203 204 206 207 210 213 215 217 216 217 218 224 226 226 225 226 227 229 231 232 233 233 235 238 241 244 246 249 253 257 259 262 265 266 267 267 267 267 266 266 267
187 192 195 195 196 199 199 200 205 204 207 207 213 220 223 222 220 221 224 225 228 230 231 231 232 234 236 237 241 244 247 249 250 253 257 257 259 261 261 259 262 262 261 261
178 181 184 188 188 187 190 196 201 202 206 210 215 220 219 218 218 219 220 221 223 224 225 229 231 231 231 232 236 239 242 244 248 249 250 252 253 252 254 252 251 252 256 260
172 176 181 184 186 190 195 200 205 209 213 222 223 219 215 211 212 214 218 219 219 220 222 224 223 221 217 223 232 238 240 241 240 243 245 244 244 242 243 249 250 256 263 269
160 161 166 175 184 189 193 197 202 201 197 201 201 198 198 202 205 211 214 212 211 212 216 219 217 219 224 230 237 238 231 230 233 234 234 232 231 237 240 246 258 267 274 280
152 152 156 161 165 171 175 178 178 181 187 190 192 194 197 201 204 207 208 207 205 210 215 215 217 222 225 230 228 223 225 225 225 223 221 224 225 235 248 262 271 278 284 287
148 150 153 155 158 162 167 170 176 178 180 184 187 190 193 195 196 195 196 199 204 208 213 213 216 217 213 213 215 216 215 216 213 215 216 223 237 253 264 274 280 284 288 289
145 144 148 146 150 156 164 168 174 178 179 180 180 183 183 185 185 185 192 198 198 199 201 200 198 202 206 206 206 207 206 206 207 211 223 238 253 266 274 280 286 289 293 295
146 146 143 143 145 150 156 164 169 174 177 178 181 182 182 182 184 186 186 189 189 190 189 191 194 196 197 196 195 197 200 202 210 226 240 252 264 271 280 286 293 298 300 300
124 135 141 142 141 143 148 152 157 163 167 171 171 172 172 173 178 180 178 179 176 176 176 175 177 181 184 189 193 196 202 215 230 241 253 263 270 278 285 292 297 299 300 301
119 131 138 138 138 140 142 145 150 153 155 155 156 157 161 163 162 153 155 160 166 172 171 169 169 174 183 191 199 211 226 242 246 254 262 269 275 282 289 294 296 298 301 301
106 107 109 117 124 128 131 134 138 144 147 148 151 150 146 146 143 145 155 164 165 163 161 163 173 186 199 210 223 234 240 248 254 260 268 274 280 287 291 293 296 298 299 301
Height
10192 10208 10224 10240 10255 10270 10282 10297 10318 10342 10339 10351 10359 10369 10421 10416 10411 10434 10439 10449 10454 10457 10467 10468 10474 10477 10479 10491 10489 10488 10487 10487 10487 10495 10499 10488 10494 10493 10488 10486 10486 10481 10477 10496
10161 10175 10192 10206 10223 10230 10252 10256 10278 10297 10294 10311 10332 10362 10387 10379 10392 10405 10412 10424 10429 10434 10444 10444 10452 10447 10464 10462 10462 10464 10469 10467 10463 10469 10476 10469 10467 10471 10468 10464 10466 10467 10447 10469
10131 10145 10159 10175 10190 10204 10213 10220 10238 10253 10265 10284 10304 10329 10358 10356 10363 10369 10385 10395 10399 10406 10414 10419 10424 10424 10434 10435 10438 10443 10444 10447 10447 10448 10441 10446 10449 10448 10447 10441 10443 10432 10439 10430
10101 10117 10131 10147 10161 10177 10177 10187 10205 10228 10240 10259 10288 10297 10318 10320 10326 10348 10355 10368 10373 10386 10389 10392 10392 10400 10406 10409 10414 10415 10415 10423 10420 10430 10421 10419 10421 10433 10429 10421 10420 10400 10419 10407
10080 10093 10108 10119 10136 10150 10148 10157 10177 10199 10216 10228 10240 10257 10275 10287 10304 10317 10331 10344 10350 10350 10355 10363 10361 10370 10378 10379 10384 10383 10391 10394 10401 10406 10402 10399 10405 10412 10404 10395 10397 10385 10384 10397
10057 10070 10083 10096 10110 10120 10126 10138 10145 10171 10193 10199 10212 10228 10255 10267 10274 10284 10300 10310 10318 10324 10333 10333 10342 10342 10341 10349 10356 10352 10368 10371 10372 10377 10376 10377 10388 10391 10379 10372 10369 10361 10367 10364
10038 10053 10066 10077 10089 10097 10110 10122 10125 10140 10177 10180 10187 10204 10221 10237 10245 10256 10270 10276 10283 10293 10307 10310 10313 10314 10318 10323 10329 10324 10338 10341 10343 10353 10351 10352 10368 10368 10357 10349 10346 10341 10343 10338
10024 10033 10043 10056 10069 10078 10090 10100 10106 10121 10146 10157 10165 10176 10193 10208 10222 10232 10239 10249 10255 10268 10278 10282 10283 10289 10288 10300 10306 10308 10314 10323 10325 10327 10328 10333 10344 10339 10336 10322 10331 10324 10319 10313
10006 10014 10027 10041 10051 10056 10068 10082 10090 10106 10123 10132 10149 10154 10166 10181 10196 10206 10216 10219 10229 10242 10250 10251 10256 10263 10268 10273 10282 10293 10296 10300 10299 10305 10303 10308 10317 10313 10309 10305 10315 10303 10296 10292
9991 10001 10014 10025 10034 10042 10057 10071 10080 10088 10101 10116 10124 10143 10153 10162 10170 10180 10186 10195 10200 10211 10223 10228 10234 10238 10248 10248 10264 10272 10274 10276 10279 10276 10278 10290 10289 10293 10283 10286 10287 10286 10281 10274
9982 9992 10003 10013 10021 10030 10038 10056 10068 10077 10085 10096 10108 10120 10133 10141 10149 10160 10168 10169 10180 10193 10196 10205 10214 10223 10228 10236 10246 10247 10249 10252 10255 10259 10262 10272 10265 10268 10262 10262 10265 10267 10261 10256
9972 9982 9994 10004 10016 10018 10027 10043 10052 10064 10069 10075 10093 10108 10116 10126 10132 10141 10145 10158 10163 10172 10178 10188 10197 10201 10212 10220 10223 10222 10233 10236 10237 10243 10246 10249 10247 10243 10246 10246 10246 10246 10240 10240
9967 9975 9984 9995 10005 10010 10019 10029 10041 10052 10058 10067 10078 10095 10102 10110 10115 10123 10133 10142 10147 10157 10168 10171 10180 10188 10198 10202 10206 10208 10215 10219 10223 10223 10230 10227 10229 10232 10232 10231 10228 10226 10224 10225
9962 9969 9978 9987 9996 10004 10012 10023 10033 10040 10048 10058 10070 10079 10087 10092 10096 10111 10118 10127 10138 10143 10148 10155 10164 10172 10177 10186 10190 10195 10198 10202 10208 10213 10212 10211 10217 10218 10216 10215 10214 10212 10211 10211
9958 9964 9973 9981 9989 9998 10007 10017 10026 10034 10044 10053 10059 10066 10070 10074 10087 10099 10108 10117 10122 10128 10135 10144 10153 10158 10164 10170 10174 10184 10183 10189 10193 10197 10199 10202 10203 10202 10203 10202 10201 10200 10200 10200
9954 9961 9968 9975 9984 9993 10003 10012 10021 10028 10033 10041 10047 10056 10057 10070 10080 10089 10096 10103 10110 10118 10126 10135 10141 10147 10154 10161 10166 10167 10172 10176 10183 10185 10187 10190 10190 10192 10191 10191 10190 10190 10190 10190
9957 9961 9967 9974 9980 9988 9997 10005 10006 10014 10021 10029 10037 10042 10053 10064 10073 10081 10087 10095 10103 10110 10119 10125 10131 10137 10144 10152 10155 10154 10158 10167 10171 10174 10176 10178 10180 10181 10181 10181 10182 10182 10182 10182
9956 9962 9967 9972 9980 9987 9993 9999 10004 10012 10019 10023 10029 10039 10052 10060 10068 10075 10081 10087 10095 10103 10109 10116 10122 10131 10138 10145 10139 10138 10151 10157 10161 10163 10166 10169 10171 10172 10173 10174 10174 10174 10174 10174
9958 9962 9968 9974 9980 9985 9991 9997 10003 10011 10018 10026 10033 10042 10049 10057 10063 10069 10075 10083 10091 10098 10103 10109 10115 10123 10130 10123 10121 10138 10145 10150 10151 10154 10158 10160 10163 10165 10166 10167 10167 10167 10167 10165
9961 9967 9971 9977 9982 9988 9994 10000 10007 10014 10020 10025 10032 10039 10045 10052 10058 10064 10071 10079 10085 10091 10095 10101 10111 10113 10114 10119 10127 10135 10138 10139 10143 10147 10151 10154 10157 10158 10160 10160 10160 10159 10158 10155
9963 9968 9973 9978 9982 9987 9994 10000 10006 10012 10017 10023 10030 10036 10042 10048 10055 10061 10068 10075 10081 10085 10090 10096 10101 10105 10112 10119 10124 10126 10130 10134 10137 10142 10145 10148 10151 10152 10153 10152 10152 10150 10147 10144
9969 9971 9975 9979 9985 9990 9995 10000 10006 10012 10018 10024 10028 10035 10041 10046 10053 10060 10066 10071 10076 10080 10086 10093 10098 10104 10107 10111 10116 10120 10124 10129 10134 10138 10141 10143 10144 10145 10145 10145 10143 10140 10137 10134
9972 9976 9980 9983 9987 9993 9997 10001 10006 10010 10016 10022 10027 10034 10041 10046 10051 10056 10061 10067 10073 10079 10084 10089 10094 10098 10103 10108 10112 10117 10122 10127 10130 10133 10136 10137 10138 10138 10138 10136 10133 10130 10127 10124
9981 9982 9985 9988 9992 9998 10003 10008 10013 10017 10021 10026 10031 10035 10040 10044 10050 10056 10061 10067 10072 10077 10083 10088 10092 10096 10101 10105 10111 10116 10120 10124 10127 10129 10131 10131 10131 10131 10129 10127 10124 10120 10117 10113
9990 9991 9992 9995 9998 10002 10006 10011 10016 10021 10026 10030 10034 10038 10043 10048 10053 10058 10063 10068 10074 10079 10083 10087 10092 10098 10103 10107 10111 10115 10118 10120 10122 10123 10124 10124 10124 10123 10120 10117 10114 10110 10107 10103
10000 10001 10003 10004 10007 10010 10013 10017 10021 10025 10029 10033 10037 10043 10048 10053 10057 10060 10066 10071 10074 10079 10084 10089 10094 10098 10102 10106 10109 10112 10114 10115 10116 10117 10117 10117 10116 10114 10111 10108 10105 10101 10097 10093
10010 10012 10013 10014 10016 10018 10021 10025 10029 10033 10036 10040 10044 10048 10051 10054 10058 10064 10069 10073 10077 10082 10087 10092 10095 10099 10101 10104 10106 10108 10110 10110 10110 10110 10110 10109 10107 10104 10101 10098 10095 10090 10087 10083